User: anonymous   Login
Location: Three Oaks Observatory
(31.1535°N, 83.5955°W)
Time: 22:06:54
(UTC-05:00)
Language:

ITUPSAT 1 - Orbit

View from above orbital plane
View from above orbital plane
View from above satellite
View from above satellite

Ground track
Ground track

The orbit data is extracted from the following two-line orbital elements,

1 35935U 09051E   19325.15353966  .00000127  00000-0  40280-4 0  9996
2 35935  98.6118 137.8679 0009073  63.8074 296.4055 14.55568526539250
Epoch (UTC): 21 November 2019 03:41:05
Eccentricity: 0.0009073
inclination: 98.6118°
perigee height: 701 km
apogee height: 714 km
right ascension of ascending node: 137.8679°
argument of perigee: 63.8074°
revolutions per day: 14.55568526
mean anomaly at epoch: 296.4055°
orbit number at epoch: 53925

The dashed part of the orbit path shows where the satellite is in the earth's shadow,  

DLR